When you browse on this site, cookies collect data to enhance your experience and personalize the content and advertising you see.
Visit our Privacy Policy to learn more. By continuing to use the site, you agree to this use of cookies and data.
  • In Portugal
  • List of Countries
  • For 7 days
  • Water Temperature
  • Satellite Maps
  • Weather Map
  • Weather Widgets
  • user-avatar
    Login

    Hourly Weather Tarija

    Today, 16 November, Friday

    Time Temperature Precipitation Wind Pressure Humidity
    00:00 +19°C° 0 mm 1 mps 595 mmHg 88%
    01:00 +18°C° 0 mm 1 mps 595 mmHg 89%
    02:00 +16°C° 0 mm 0 mps 595 mmHg 90%
    03:00 +16°C° 0 mm 0 mps 595 mmHg 90%
    04:00 +16°C° 0 mm 0 mps 595 mmHg 91%
    05:00 +15°C° 0 mm 0 mps 596 mmHg 91%
    06:00 +19°C° 0 mm 1 mps 596 mmHg 85%
    07:00 +20°C° 0 mm 1 mps 597 mmHg 78%
    08:00 +22°C° 0 mm 1 mps 598 mmHg 72%
    09:00 +23°C° 0 mm 2 mps 598 mmHg 66%
    10:00 +24°C° 0 mm 3 mps 599 mmHg 60%
    11:00 +26°C° 0 mm 3 mps 599 mmHg 54%
    12:00 +26°C° 0.1 mm 3 mps 598 mmHg 56%
    13:00 +26°C° 0.1 mm 4 mps 598 mmHg 58%
    14:00 +25°C° 0.1 mm 4 mps 597 mmHg 60%
    15:00 +25°C° 0.1 mm 4 mps 596 mmHg 64%
    16:00 +24°C° 0.1 mm 3 mps 596 mmHg 68%
    17:00 +22°C° 0.1 mm 3 mps 595 mmHg 73%
    18:00 +21°C° 0.2 mm 3 mps 595 mmHg 77%
    19:00 +20°C° 0.2 mm 2 mps 595 mmHg 81%
    20:00 +20°C° 0.2 mm 2 mps 595 mmHg 85%
    21:00 +19°C° 0.2 mm 2 mps 596 mmHg 87%
    22:00 +19°C° 0.2 mm 2 mps 596 mmHg 88%
    23:00 +20°C° 0.2 mm 1 mps 596 mmHg 90%

    Tomorrow, 17 November, Saturday

    Time Temperature Precipitation Wind Pressure Humidity
    00:00 +20°C° 0.1 mm 1 mps 596 mmHg 90%
    01:00 +20°C° 0.1 mm 1 mps 595 mmHg 89%
    02:00 +20°C° 0.1 mm 1 mps 595 mmHg 89%
    03:00 +19°C° 0 mm 2 mps 594 mmHg 88%
    04:00 +19°C° 0 mm 2 mps 594 mmHg 87%
    05:00 +19°C° 0 mm 2 mps 594 mmHg 85%
    06:00 +20°C° 0 mm 2 mps 595 mmHg 78%
    07:00 +21°C° 0 mm 2 mps 596 mmHg 70%
    08:00 +24°C° 0 mm 2 mps 596 mmHg 63%
    09:00 +26°C° 0.1 mm 2 mps 597 mmHg 56%
    10:00 +27°C° 0.1 mm 2 mps 597 mmHg 49%
    11:00 +29°C° 0.1 mm 2 mps 597 mmHg 42%
    12:00 +30°C° 0.4 mm 3 mps 597 mmHg 42%
    13:00 +30°C° 0.4 mm 4 mps 596 mmHg 42%
    14:00 +32°C° 0.4 mm 4 mps 596 mmHg 43%
    15:00 +29°C° 2.3 mm 4 mps 595 mmHg 48%
    16:00 +28°C° 2.3 mm 4 mps 594 mmHg 54%
    17:00 +27°C° 2.3 mm 4 mps 594 mmHg 59%
    18:00 +25°C° 3.6 mm 3 mps 594 mmHg 66%
    19:00 +24°C° 3.6 mm 3 mps 594 mmHg 73%
    20:00 +22°C° 3.6 mm 3 mps 594 mmHg 80%
    21:00 +21°C° 1.9 mm 3 mps 595 mmHg 82%
    22:00 +21°C° 1.9 mm 3 mps 595 mmHg 84%
    23:00 +20°C° 1.9 mm 2 mps 596 mmHg 86%

    Day after tomorrow, 18 November, Sunday

    Time Temperature Precipitation Wind Pressure Humidity
    00:00 +20°C° 1 mm 2 mps 596 mmHg 86%
    01:00 +20°C° 1 mm 2 mps 595 mmHg 87%
    02:00 +19°C° 1 mm 2 mps 595 mmHg 87%
    03:00 +19°C° 0.2 mm 2 mps 595 mmHg 88%
    04:00 +19°C° 0.2 mm 2 mps 595 mmHg 88%
    05:00 +18°C° 0.2 mm 3 mps 595 mmHg 89%
    06:00 +18°C° 0.4 mm 3 mps 596 mmHg 89%
    07:00 +19°C° 0.4 mm 4 mps 597 mmHg 89%
    08:00 +19°C° 0.4 mm 4 mps 598 mmHg 89%
    09:00 +18°C° 0.6 mm 4 mps 598 mmHg 90%
    10:00 +17°C° 0.6 mm 5 mps 598 mmHg 91%
    11:00 +16°C° 0.6 mm 5 mps 599 mmHg 92%
    12:00 +16°C° 0.9 mm 5 mps 598 mmHg 93%
    13:00 +15°C° 0.9 mm 5 mps 598 mmHg 93%
    14:00 +14°C° 0.9 mm 5 mps 598 mmHg 94%
    15:00 +14°C° 0.3 mm 4 mps 597 mmHg 93%
    16:00 +14°C° 0.3 mm 4 mps 597 mmHg 93%
    17:00 +14°C° 0.3 mm 3 mps 597 mmHg 92%
    18:00 +14°C° 0.3 mm 3 mps 598 mmHg 93%
    19:00 +14°C° 0.3 mm 3 mps 598 mmHg 93%
    20:00 +14°C° 0.3 mm 3 mps 599 mmHg 93%
    21:00 +15°C° 0.2 mm 2 mps 599 mmHg 93%
    22:00 +15°C° 0.2 mm 2 mps 599 mmHg 93%
    23:00 +15°C° 0.2 mm 1 mps 599 mmHg 93%

    19 November, Monday

    Time Temperature Precipitation Wind Pressure Humidity
    00:00 +14°C° 0 mm 1 mps 599 mmHg 92%
    01:00 +14°C° 0 mm 1 mps 598 mmHg 90%
    02:00 +14°C° 0 mm 1 mps 597 mmHg 89%
    03:00 +14°C° 0 mm 1 mps 597 mmHg 88%
    04:00 +14°C° 0 mm 1 mps 597 mmHg 87%
    05:00 +14°C° 0 mm 1 mps 597 mmHg 85%
    06:00 +15°C° 0 mm 1 mps 597 mmHg 78%
    07:00 +18°C° 0 mm 1 mps 598 mmHg 71%
    08:00 +19°C° 0 mm 1 mps 599 mmHg 64%
    09:00 +21°C° 0 mm 1 mps 599 mmHg 59%
    10:00 +21°C° 0 mm 2 mps 599 mmHg 54%
    11:00 +24°C° 0 mm 2 mps 600 mmHg 48%
    12:00 +24°C° 0 mm 3 mps 599 mmHg 49%
    13:00 +25°C° 0 mm 3 mps 598 mmHg 50%
    14:00 +25°C° 0 mm 4 mps 598 mmHg 51%
    15:00 +23°C° 0 mm 4 mps 597 mmHg 57%
    16:00 +22°C° 0 mm 4 mps 596 mmHg 63%
    17:00 +21°C° 0 mm 4 mps 595 mmHg 68%
    18:00 +20°C° 0.1 mm 3 mps 596 mmHg 73%
    19:00 +19°C° 0.1 mm 3 mps 596 mmHg 78%
    20:00 +18°C° 0.1 mm 2 mps 596 mmHg 84%
    21:00 +18°C° 0.1 mm 2 mps 597 mmHg 84%
    22:00 +18°C° 0.1 mm 2 mps 597 mmHg 85%
    23:00 +18°C° 0.1 mm 1 mps 598 mmHg 86%

    20 November, Tuesday

    Time Temperature Precipitation Wind Pressure Humidity
    00:00 +18°C° 0.1 mm 1 mps 597 mmHg 87%
    01:00 +18°C° 0.1 mm 1 mps 597 mmHg 88%
    02:00 +18°C° 0.1 mm 1 mps 596 mmHg 89%
    03:00 +16°C° 0 mm 1 mps 596 mmHg 90%
    04:00 +16°C° 0 mm 1 mps 596 mmHg 90%
    05:00 +16°C° 0 mm 1 mps 596 mmHg 91%
    06:00 +18°C° 0 mm 1 mps 597 mmHg 86%
    07:00 +19°C° 0 mm 1 mps 597 mmHg 81%
    08:00 +20°C° 0 mm 1 mps 598 mmHg 76%
    09:00 +20°C° 0 mm 2 mps 598 mmHg 71%
    10:00 +23°C° 0 mm 2 mps 599 mmHg 66%
    11:00 +24°C° 0 mm 3 mps 599 mmHg 61%
    12:00 +22°C° 0.2 mm 3 mps 598 mmHg 63%
    13:00 +22°C° 0.2 mm 3 mps 598 mmHg 65%
    14:00 +22°C° 0.2 mm 4 mps 597 mmHg 67%
    15:00 +21°C° 0.3 mm 3 mps 597 mmHg 71%
    16:00 +20°C° 0.3 mm 3 mps 596 mmHg 75%
    17:00 +20°C° 0.3 mm 3 mps 596 mmHg 79%
    18:00 +19°C° 0.5 mm 3 mps 596 mmHg 82%
    19:00 +19°C° 0.5 mm 2 mps 597 mmHg 86%
    20:00 +18°C° 0.5 mm 2 mps 597 mmHg 89%
    21:00 +18°C° 1.8 mm 2 mps 597 mmHg 90%
    22:00 +17°C° 1.8 mm 2 mps 598 mmHg 92%
    23:00 +17°C° 1.8 mm 2 mps 598 mmHg 93%

    21 November, Wednesday

    Time Temperature Precipitation Wind Pressure Humidity
    00:00 +17°C° 1.7 mm 2 mps 597 mmHg 93%
    01:00 +18°C° 1.7 mm 1 mps 597 mmHg 93%
    02:00 +18°C° 1.7 mm 1 mps 596 mmHg 93%
    03:00 +18°C° 1.2 mm 1 mps 596 mmHg 93%
    04:00 +18°C° 1.2 mm 1 mps 596 mmHg 93%
    05:00 +18°C° 1.2 mm 1 mps 596 mmHg 93%
    06:00 +18°C° 1.6 mm 1 mps 597 mmHg 92%
    07:00 +18°C° 1.6 mm 1 mps 597 mmHg 91%
    08:00 +19°C° 1.6 mm 1 mps 597 mmHg 90%
    09:00 +19°C° 1.3 mm 1 mps 597 mmHg 86%
    10:00 +20°C° 1.3 mm 1 mps 597 mmHg 83%
    11:00 +21°C° 1.3 mm 1 mps 597 mmHg 79%
    12:00 +21°C° 0.5 mm 2 mps 597 mmHg 76%
    13:00 +21°C° 0.5 mm 2 mps 596 mmHg 73%
    14:00 +22°C° 0.5 mm 3 mps 596 mmHg 70%
    15:00 +22°C° 0.7 mm 3 mps 595 mmHg 74%
    16:00 +22°C° 0.7 mm 3 mps 595 mmHg 79%
    17:00 +21°C° 0.7 mm 3 mps 594 mmHg 83%
    18:00 +20°C° 0.7 mm 2 mps 595 mmHg 86%
    19:00 +20°C° 0.7 mm 2 mps 595 mmHg 89%
    20:00 +19°C° 0.7 mm 2 mps 595 mmHg 92%
    21:00 +20°C° 1.4 mm 1 mps 596 mmHg 93%
    22:00 +20°C° 1.4 mm 1 mps 596 mmHg 93%
    23:00 +20°C° 1.4 mm 1 mps 596 mmHg 93%
    Show more